Flag for Portugal Weather past 2 weeks in Ponta Delgada (Azores), Portugal

Now
72 °F

Passing clouds.


Feels Like: 69 °F
Forecast: 72 / 79 °F
Wind: 12 mph from West

Location: Ponta Delgada / Nordela Acores

Current Time: Aug 23, 2014 at 5:53:44 AM

Latest Report: Aug 23, 2014 at 5:00 AM


Visibility: N/A

Pressure: 30.07 "Hg

Humidity: 88%

Dew point: 68 °F

Location of Ponta Delgada (Azores)Location

Historic Weather in Ponta Delgada (Azores) — Graph

°F

Ponta Delgada (Azores) temperature yesterday

Maximum temperature yesterday: 77 °F (at 12:30 PM)
Minimum temperature yesterday: 72 °F (at 12:00 AM)
Average temperature yesterday: 73 °F

Past Weeks' High & Low Weather Summary

 TemperatureHumidityPressure
High79 °F (Aug 15, 2:30 PM)100% (Aug 22, 9:30 PM)30.30 "Hg (Aug 22, 9:30 PM)
Low64 °F (Aug 20, 5:30 AM)61% (Aug 10, 12:00 PM)29.95 "Hg (Aug 18, 2:00 AM)
Average73 °F82%30.16 "Hg
* Reported Aug 8 4:00 AM — Aug 23 4:30 AM, Ponta Delgada (Azores), Weather by CustomWeather, © 2014

Note: Actual official high and low records may vary slightly from our data, if they occured in-between our weather recording intervals... More about our weather records

Advertising

Ponta Delgada (Azores) weather history for previous 24 hours

 ConditionsComfort  
Time TempWeatherWind HumidityBarometerVisibility
4:30 AM
Aug 23
72 °FPassing clouds.9 mph88%30.07 "HgN/A
4:00 AM72 °FPassing clouds.9 mph88%30.07 "HgN/A
3:30 AM72 °FPassing clouds.9 mph88%30.07 "HgN/A
3:00 AM72 °FPassing clouds.9 mph88%30.07 "HgN/A
2:30 AM72 °FPassing clouds.12 mph94%30.07 "HgN/A
2:00 AM72 °FPassing clouds.10 mph94%30.07 "HgN/A
1:30 AM73 °FPassing clouds.10 mph89%30.09 "HgN/A
1:00 AM73 °FPassing clouds.9 mph89%30.09 "HgN/A
12:30 AM72 °FPassing clouds.8 mph94%30.09 "HgN/A
12:00 AM72 °FPassing clouds.10 mph94%30.09 "HgN/A
11:30 PM
Aug 22
73 °FPassing clouds.14 mph89%30.09 "HgN/A
11:00 PM72 °FPassing clouds.15 mph94%30.09 "HgN/A
10:30 PM72 °FSprinkles. Passing clouds.16 mph94%30.09 "HgN/A
10:00 PM72 °FPartly cloudy.18 mph94%30.07 "Hg5 mi
9:30 PM72 °FPartly cloudy.20 mph100%30.07 "Hg3 mi
9:00 PM73 °FFog.10 mph94%30.07 "Hg2 mi
8:30 PM72 °FDrizzle. Partly sunny.12 mph94%30.04 "Hg2 mi
8:00 PM73 °FSprinkles. Broken clouds.12 mph89%30.04 "Hg4 mi
7:30 PM73 °FSprinkles. Partly sunny.12 mph89%30.04 "Hg6 mi
7:00 PM73 °FBroken clouds.10 mph89%30.04 "HgN/A
6:30 PM73 °FBroken clouds.13 mph89%30.04 "HgN/A
6:00 PM75 °FBroken clouds.10 mph83%30.04 "HgN/A
5:30 PM77 °FScattered clouds.10 mph89%30.04 "HgN/A
5:00 PM77 °FScattered clouds.13 mph89%30.04 "HgN/A
4:30 PM77 °FScattered clouds.12 mph83%30.07 "HgN/A
4:00 PM73 °FBroken clouds.13 mph94%30.07 "HgN/A
3:30 PM73 °FPartly sunny.9 mph94%30.07 "HgN/A
3:00 PM72 °FSprinkles. Broken clouds.10 mph94%30.07 "Hg4 mi
2:30 PM73 °FSprinkles. Broken clouds.8 mph89%30.07 "Hg4 mi
2:01 PM73 °FSprinkles. Broken clouds.9 mph89%30.07 "Hg4 mi
1:30 PM77 °FBroken clouds.9 mph83%30.07 "HgN/A
1:00 PM77 °FBroken clouds.9 mph83%30.07 "HgN/A
12:30 PM77 °FBroken clouds.N/A83%30.07 "HgN/A
12:00 PM73 °FScattered showers. Broken clouds.10 mph83%30.09 "HgN/A
11:30 AM75 °FBroken clouds.10 mph89%30.09 "HgN/A
11:00 AM75 °FScattered clouds.9 mph89%30.07 "HgN/A
10:30 AM75 °FScattered clouds.8 mph89%30.07 "HgN/A
10:00 AM73 °FPartly sunny.7 mph89%30.07 "HgN/A
9:30 AM73 °FPartly sunny.6 mph89%30.07 "HgN/A
9:00 AM73 °FBroken clouds.8 mph94%30.07 "HgN/A
8:30 AM73 °FScattered clouds.7 mph89%30.07 "HgN/A
8:00 AM72 °FPassing clouds.7 mph94%30.04 "HgN/A
7:30 AM72 °FPassing clouds.6 mph94%30.04 "HgN/A
7:00 AM72 °FPassing clouds.N/A94%30.04 "HgN/A
6:30 AM72 °FPassing clouds.N/A94%30.04 "HgN/A
6:00 AM72 °FPassing clouds.N/A94%30.04 "HgN/A
5:30 AM72 °FPassing clouds.N/A94%30.04 "HgN/A
5:00 AM72 °FPassing clouds.N/A94%30.04 "HgN/A
Weather by CustomWeather, © 2014

See weather overviewHow to use our weather pages